This is the latest recevied weather packets stored in our database for station/object NC4J. If no packets are shown the sender has not sent any weather packets the latest 10 day(s).
| Time | Temp. | Humidity | Pressure | Rain* | Wind** | Luminosity | Snow |
|---|---|---|---|---|---|---|---|
| 1777841432 | 17.78° C | 33% | 1016.9 hPa | 0 mm | - | 34 W/m² | - |
| 1777841129 | 17.22° C | 34% | 1017 hPa | 0 mm | - | 35 W/m² | - |
| 1777840826 | 17.78° C | 32% | 1017 hPa | 0 mm | - | 34 W/m² | - |
| 1777840523 | 17.78° C | 31% | 1017.3 hPa | 0 mm | - | 51 W/m² | - |
| 1777840220 | 17.78° C | 34% | 1017.2 hPa | 0 mm | - | 37 W/m² | - |
| 1777839918 | 17.78° C | 32% | 1017.2 hPa | 0 mm | - | 55 W/m² | - |
| 1777839616 | 17.78° C | 34% | 1017.3 hPa | 0 mm | - | 67 W/m² | - |
| 1777839314 | 17.78° C | 33% | 1017.4 hPa | 0 mm | - | 119 W/m² | - |
| 1777839010 | 17.22° C | 33% | 1017.3 hPa | 0 mm | - | 227 W/m² | - |
| 1777838707 | 16.67° C | 33% | 1017.6 hPa | 0 mm | - | 183 W/m² | - |
| 1777838403 | 17.22° C | 33% | 1017.6 hPa | 0 mm | - | 413 W/m² | - |
| 1777838100 | 17.22° C | 33% | 1017.9 hPa | 0 mm | - | 503 W/m² | - |
| 1777837797 | 17.22° C | 34% | 1017.8 hPa | 0 mm | - | 680 W/m² | - |
| 1777837495 | 17.22° C | 34% | 1018 hPa | 0 mm | - | 401 W/m² | - |
| 1777837189 | 16.67° C | 33% | 1018.1 hPa | 0 mm | - | 611 W/m² | - |
| 1777836885 | 16.67° C | 34% | 1018.2 hPa | 0 mm | - | 588 W/m² | - |
| 1777836581 | 16.67° C | 34% | 1018.2 hPa | 0 mm | - | 131 W/m² | - |
| 1777836278 | 16.67° C | 34% | 1018.2 hPa | 0 mm | - | 138 W/m² | - |
| 1777835973 | 16.67° C | 33% | 1018.3 hPa | 0 mm | - | 445 W/m² | - |
| 1777835671 | 16.67° C | 36% | 1018.4 hPa | 0 mm | - | 442 W/m² | - |
| 1777835367 | 16.11° C | 34% | 1018.3 hPa | 0 mm | - | 77 W/m² | - |
| 1777835065 | 16.11° C | 34% | 1018.6 hPa | 0 mm | - | 77 W/m² | - |
| 1777834761 | 15.56° C | 33% | 1018.6 hPa | 0 mm | - | 97 W/m² | - |
| 1777834458 | 16.11° C | 36% | 1018.6 hPa | 0 mm | - | 63 W/m² | - |
| 1777834157 | 16.11° C | 35% | 1018.7 hPa | 0 mm | - | 246 W/m² | - |
* Rain latest hour (hover to see other rain measurements)
** Current wind speed in m/s (hover to see current wind gust speed)